Wind_Speed
17 18 18 18 19 20 21 21 21 20 20 21 20 21 21 21 22 23 23 23 24 24 24 24 24 23 23 23 23 23 22 23 23 23 22 22 22 21 21 22 23 23 23
17 17 18 19 19 19 18 19 20 20 19 20 21 21 22 22 22 23 23 23 23 24 24 24 24 23 23 23 24 23 24 24 25 25 24 23 22 22 22 22 23 24 23
17 17 17 18 19 19 19 19 19 19 20 21 21 21 22 22 22 23 23 23 23 24 24 23 23 24 24 24 24 24 25 25 26 27 27 26 25 24 24 24 23 24 24
17 17 18 18 18 20 20 20 19 20 20 20 21 21 22 22 22 22 23 24 24 24 24 24 25 25 25 25 25 26 26 27 27 27 27 27 26 25 25 25 24 24 25
18 18 18 18 19 20 20 21 20 19 19 20 21 21 22 22 22 23 23 23 24 24 25 25 26 26 26 27 27 27 27 27 27 27 28 27 27 27 26 26 26 25 25
17 17 18 18 19 19 20 20 19 20 20 21 22 22 22 22 22 22 22 23 24 25 26 26 27 28 28 28 28 27 27 27 27 28 28 28 28 28 27 27 26 26 26
16 17 17 17 18 19 19 19 19 20 21 21 22 22 22 23 23 23 22 22 22 24 24 25 26 27 28 29 29 29 28 28 28 28 29 29 29 29 28 28 27 27 27
14 15 16 17 17 17 17 17 18 20 21 21 22 22 23 23 23 23 23 22 22 23 24 25 26 27 27 28 29 30 30 29 29 29 29 30 30 29 29 29 29 28 28
13 14 15 15 15 16 16 16 18 19 20 21 21 21 22 22 22 22 23 23 23 23 23 24 25 26 27 28 29 30 30 30 30 31 30 31 31 31 31 30 30 30 29
13 13 14 14 14 15 15 15 16 18 18 19 19 20 21 22 22 22 22 22 23 23 24 25 26 27 28 28 29 30 30 30 31 31 32 32 32 32 32 31 31 31 31
13 13 13 14 15 15 15 16 17 17 18 18 19 20 21 21 22 22 22 22 23 23 24 25 26 28 29 29 29 29 30 30 31 31 32 32 32 32 32 32 32 32 33
13 13 13 14 15 15 15 17 17 17 18 19 20 21 21 21 21 22 22 23 24 24 25 25 26 27 28 29 29 30 30 31 30 31 31 32 32 32 33 33 33 34 33
13 14 14 15 15 16 16 17 17 18 19 20 21 21 21 22 22 22 23 23 24 24 25 25 25 26 27 28 28 29 30 30 30 31 31 32 33 33 34 34 34 35 34
13 14 15 15 15 16 16 16 17 18 19 19 19 20 21 21 21 22 23 23 23 23 24 25 25 25 26 27 27 28 29 30 31 31 32 32 33 33 34 34 35 35 35
14 15 15 16 16 16 16 17 17 19 20 20 20 20 20 20 21 21 23 23 23 24 25 26 26 26 26 27 27 28 28 29 30 31 31 31 32 32 32 34 35 35 36
17 17 16 17 17 17 18 18 19 20 21 21 20 20 20 21 21 23 23 24 24 25 25 26 26 26 27 27 28 28 28 28 29 30 31 31 31 32 33 33 34 35 36
17 17 16 17 18 18 19 20 20 21 21 21 20 20 21 22 22 23 23 24 24 24 24 24 26 27 28 28 29 29 29 29 29 30 31 31 31 32 32 33 34 34 34
16 16 16 17 17 18 19 20 21 20 20 20 20 21 22 23 23 24 23 24 24 24 25 25 26 27 27 28 29 29 29 30 30 31 32 32 32 32 33 33 33 34 34
17 17 17 17 18 18 19 20 20 20 20 21 21 22 22 23 23 24 24 25 25 25 26 27 27 28 28 29 29 29 30 30 31 32 32 32 32 32 33 33 33 34 34
18 18 18 18 19 19 19 20 21 21 21 21 21 22 22 22 23 23 24 24 24 25 26 26 26 27 28 28 28 28 28 28 29 29 30 30 30 31 32 32 32 33 34
18 18 19 19 19 20 21 21 21 21 21 22 22 22 23 23 23 23 23 23 23 23 24 24 24 25 24 24 25 25 25 25 26 27 28 28 28 30 31 31 31 32 33
18 19 19 20 20 21 21 21 22 22 22 22 22 23 23 23 22 22 22 22 23 23 23 22 21 21 21 20 21 22 23 23 23 24 25 26 28 28 29 29 30 31 32
19 20 20 21 21 21 21 22 21 22 22 22 22 22 22 22 22 22 22 22 22 22 21 20 20 20 20 20 20 21 22 23 22 22 24 25 26 27 28 29 30 30 31
19 20 20 20 20 20 20 20 21 21 22 22 22 22 22 22 21 22 22 21 21 20 20 21 20 20 20 19 19 20 21 21 22 22 23 23 24 25 26 27 28 29 30
20 20 20 20 20 20 20 20 21 21 21 21 21 21 21 21 21 21 20 20 19 19 19 19 19 19 19 19 19 20 20 20 20 21 22 21 22 24 24 25 26 27 29
20 20 20 20 20 21 20 20 21 21 21 21 21 20 20 20 20 20 20 19 18 18 18 18 18 17 17 18 18 18 19 19 18 18 19 19 20 22 22 23 24 25 27
Wind_Direction
280 277 277 278 277 276 276 275 272 271 269 270 271 270 267 268 270 268 266 264 263 263 263 261 260 259 259 260 260 261 262 261 259 257 258 258 256 255 254 250 249 249 250
280 278 277 278 278 277 277 276 272 271 270 270 270 270 269 269 269 267 264 263 262 263 263 261 258 257 259 260 260 260 261 261 258 256 255 256 255 255 255 253 250 248 248
281 280 278 278 278 278 280 280 274 271 273 274 272 269 269 268 267 266 263 262 262 262 261 261 259 258 260 260 259 260 261 260 259 258 257 257 256 256 255 253 252 250 248
282 280 280 279 278 278 278 280 275 275 275 275 274 272 270 269 269 267 263 262 262 261 261 261 260 259 260 260 259 259 259 259 259 258 257 256 256 255 254 254 252 250 248
282 282 279 279 279 278 276 275 274 272 273 277 276 275 273 270 270 268 265 262 262 261 259 260 260 260 261 261 260 261 259 257 257 256 255 254 254 255 254 253 252 251 249
282 282 279 279 277 277 276 273 273 273 275 278 277 276 275 273 273 271 268 264 262 260 260 260 260 260 261 261 260 260 260 258 256 256 254 254 255 255 255 253 253 251 248
282 283 283 280 277 278 278 275 273 275 276 277 278 276 275 274 273 272 271 268 265 263 263 263 262 263 263 262 261 261 262 260 258 257 255 254 254 253 253 252 253 251 249
291 290 289 283 280 281 283 279 275 276 276 278 280 276 273 272 273 274 273 270 268 267 266 265 264 264 264 263 262 261 261 260 258 257 256 253 252 252 251 252 252 251 249
296 297 293 288 286 285 285 283 278 278 278 281 281 277 275 274 275 274 273 272 270 270 268 266 266 265 266 265 263 261 260 258 257 257 255 253 253 251 251 251 251 250 248
298 298 298 295 293 292 289 286 283 282 281 282 281 280 279 278 278 277 275 272 271 270 270 270 269 268 267 266 264 261 258 259 258 257 255 254 252 251 250 250 248 248 247
301 300 302 299 296 295 292 289 289 284 284 285 284 283 283 281 280 277 276 275 274 272 271 271 269 270 269 267 266 263 260 259 259 258 256 255 253 251 251 249 249 249 249
304 303 302 301 300 296 293 292 289 289 289 288 286 285 284 282 281 279 276 274 275 274 273 272 271 271 270 269 266 263 261 259 259 258 257 256 255 254 253 250 249 248 249
306 305 304 304 302 298 293 292 291 290 290 290 287 287 286 284 283 281 281 279 277 276 276 275 274 273 272 270 268 264 262 260 260 259 258 257 257 255 253 251 250 249 249
310 308 306 304 301 298 295 294 296 296 296 296 294 292 289 287 286 286 283 281 279 278 279 278 277 275 273 270 267 265 263 261 259 259 259 259 258 256 254 250 249 249 248
308 306 306 302 298 296 295 296 298 299 299 297 296 296 293 290 289 288 286 284 281 280 280 279 277 275 273 271 268 265 263 261 259 259 258 259 258 256 255 252 250 249 248
308 306 302 300 298 296 296 298 301 300 300 298 297 296 294 291 290 289 288 286 284 283 282 280 278 275 273 270 269 266 264 262 261 260 260 260 259 258 256 255 252 250 250
311 308 305 303 301 300 300 301 302 302 300 299 298 297 296 293 290 290 288 287 287 286 285 281 279 277 276 272 271 268 266 265 263 261 261 260 259 259 257 255 253 251 251
314 310 307 307 306 304 304 305 304 304 303 302 301 301 301 299 294 290 288 287 286 284 283 281 279 279 277 274 272 270 269 267 264 263 262 261 260 259 257 255 253 253 252
313 310 310 310 309 307 307 308 307 305 304 305 305 304 303 302 298 294 291 289 287 285 285 284 282 280 276 274 272 270 269 268 265 264 263 261 260 259 257 255 252 252 252
311 310 312 313 312 311 310 309 310 309 307 307 306 305 303 302 300 298 295 292 290 289 289 288 286 284 280 277 274 272 270 269 267 265 263 262 260 259 257 255 254 253 252
310 311 312 312 312 310 309 310 310 309 308 307 307 305 303 303 303 302 299 295 293 292 292 292 291 288 285 281 277 274 272 272 271 268 265 262 260 259 257 256 254 254 253
313 314 313 312 311 311 311 311 309 309 308 308 308 307 305 304 304 303 304 300 295 294 294 295 295 293 288 284 280 277 276 275 273 271 268 265 262 259 257 256 255 255 255
313 314 313 313 311 311 311 310 310 311 310 309 309 309 308 306 305 305 305 304 301 295 294 294 294 295 293 288 284 281 279 278 277 273 270 267 264 262 260 258 258 258 257
310 311 313 312 311 311 312 312 313 314 313 312 311 310 310 309 309 308 307 306 305 301 297 294 292 293 293 291 288 286 284 282 278 275 273 271 267 265 264 263 261 261 260
310 311 310 311 313 313 313 314 313 313 313 314 314 313 312 312 314 314 311 310 309 306 302 299 296 294 293 293 290 288 286 285 281 277 276 274 270 266 265 266 265 264 263
312 311 312 313 314 315 314 314 314 314 315 316 315 315 314 315 317 317 316 314 310 308 307 305 302 300 299 297 295 292 288 287 287 284 282 278 273 272 269 267 267 268 267
Height
5828 5827 5827 5827 5826 5825 5825 5824 5825 5825 5825 5825 5825 5826 5826 5827 5827 5827 5828 5828 5829 5829 5830 5831 5832 5833 5834 5835 5836 5838 5839 5840 5841 5843 5844 5846 5847 5849 5851 5852 5854 5856 5858
5823 5822 5822 5822 5821 5820 5820 5820 5820 5820 5820 5820 5820 5820 5820 5820 5821 5821 5822 5822 5823 5823 5824 5825 5826 5827 5828 5829 5831 5832 5833 5834 5836 5837 5839 5840 5842 5844 5846 5847 5849 5851 5853
5818 5818 5817 5817 5816 5815 5815 5815 5815 5815 5814 5815 5814 5814 5814 5814 5815 5815 5816 5816 5817 5817 5818 5819 5820 5821 5822 5824 5825 5826 5827 5828 5829 5831 5832 5834 5836 5838 5840 5842 5844 5846 5848
5813 5813 5812 5811 5811 5810 5810 5810 5810 5810 5809 5809 5809 5809 5809 5809 5809 5809 5809 5810 5810 5811 5812 5812 5814 5815 5816 5817 5818 5819 5820 5822 5823 5824 5826 5828 5830 5832 5834 5836 5838 5840 5842
5808 5807 5807 5806 5805 5805 5804 5805 5805 5805 5804 5804 5803 5803 5803 5802 5803 5803 5803 5803 5804 5805 5805 5806 5807 5808 5809 5810 5811 5813 5814 5815 5816 5818 5820 5822 5824 5826 5828 5830 5832 5834 5836
5803 5802 5801 5801 5800 5799 5799 5799 5799 5800 5799 5799 5798 5797 5797 5797 5796 5797 5797 5797 5797 5798 5799 5799 5800 5801 5802 5803 5804 5806 5807 5808 5810 5811 5813 5815 5817 5819 5821 5823 5825 5827 5830
5798 5797 5796 5796 5795 5794 5794 5793 5795 5795 5794 5793 5793 5792 5792 5791 5791 5791 5791 5791 5791 5791 5792 5793 5793 5794 5795 5796 5797 5798 5799 5801 5802 5804 5806 5808 5810 5812 5814 5816 5819 5821 5823
5794 5793 5792 5791 5791 5790 5790 5789 5790 5790 5789 5788 5788 5787 5787 5787 5786 5786 5785 5785 5785 5785 5786 5786 5787 5788 5788 5789 5790 5791 5792 5793 5795 5797 5799 5801 5803 5805 5807 5809 5811 5814 5816
5792 5790 5789 5788 5787 5787 5786 5785 5785 5785 5784 5783 5782 5782 5781 5781 5780 5780 5780 5779 5779 5779 5780 5780 5780 5781 5781 5782 5782 5783 5784 5786 5787 5789 5791 5793 5795 5797 5799 5802 5804 5806 5809
5790 5788 5786 5785 5784 5783 5782 5782 5781 5780 5779 5779 5778 5776 5776 5775 5775 5774 5774 5774 5774 5774 5773 5773 5774 5774 5774 5774 5774 5775 5777 5778 5780 5781 5783 5785 5787 5789 5791 5794 5796 5799 5801
5787 5785 5784 5783 5781 5780 5779 5778 5777 5776 5775 5774 5773 5772 5771 5770 5769 5768 5768 5768 5768 5767 5767 5767 5766 5766 5766 5766 5766 5767 5769 5770 5772 5773 5775 5777 5779 5781 5783 5786 5788 5791 5794
5784 5782 5781 5780 5779 5777 5776 5775 5773 5772 5770 5769 5768 5767 5766 5765 5764 5763 5762 5762 5762 5761 5760 5760 5759 5759 5758 5758 5759 5760 5761 5762 5764 5765 5767 5769 5771 5772 5775 5777 5780 5782 5785
5781 5780 5778 5777 5775 5774 5772 5771 5770 5768 5767 5765 5763 5762 5761 5759 5758 5757 5756 5756 5755 5755 5754 5754 5753 5752 5751 5751 5751 5752 5753 5754 5756 5757 5759 5760 5762 5764 5766 5768 5771 5773 5776
5779 5777 5775 5774 5772 5770 5769 5768 5766 5764 5763 5761 5759 5757 5755 5754 5752 5751 5750 5749 5749 5748 5748 5747 5746 5745 5744 5744 5744 5744 5745 5746 5748 5749 5750 5752 5753 5755 5757 5759 5761 5764 5766
5775 5774 5772 5770 5769 5767 5766 5764 5762 5760 5758 5756 5754 5752 5750 5748 5747 5745 5744 5743 5743 5742 5741 5740 5739 5737 5737 5736 5736 5737 5737 5738 5739 5740 5742 5743 5745 5746 5748 5750 5752 5754 5757
5772 5770 5768 5766 5765 5763 5762 5760 5757 5755 5753 5751 5749 5747 5745 5743 5741 5739 5738 5736 5735 5734 5733 5732 5731 5730 5729 5729 5729 5729 5730 5730 5731 5732 5733 5735 5736 5737 5739 5740 5742 5745 5748
5767 5765 5764 5762 5761 5759 5757 5755 5753 5750 5748 5746 5743 5741 5739 5737 5735 5733 5731 5729 5728 5726 5725 5725 5723 5722 5722 5721 5721 5721 5721 5722 5723 5723 5724 5726 5727 5728 5729 5731 5733 5736 5738
5763 5761 5760 5758 5757 5755 5753 5750 5748 5746 5743 5741 5738 5736 5733 5731 5728 5726 5724 5722 5720 5719 5718 5717 5716 5715 5714 5713 5713 5713 5713 5714 5714 5715 5715 5716 5717 5718 5720 5721 5723 5726 5728
5760 5758 5756 5754 5752 5750 5748 5746 5743 5741 5738 5736 5733 5730 5728 5725 5722 5719 5717 5715 5713 5712 5710 5708 5708 5707 5706 5705 5705 5705 5705 5705 5705 5706 5706 5707 5708 5708 5710 5712 5714 5716 5719
5756 5754 5752 5750 5748 5746 5743 5741 5738 5735 5733 5730 5727 5725 5722 5719 5716 5713 5710 5708 5706 5704 5703 5701 5699 5699 5698 5697 5696 5696 5696 5696 5696 5696 5697 5697 5698 5699 5700 5702 5704 5706 5708
5753 5751 5748 5746 5744 5741 5738 5736 5733 5730 5728 5725 5722 5719 5716 5713 5710 5707 5704 5702 5700 5698 5696 5694 5692 5691 5690 5689 5688 5688 5688 5688 5687 5687 5688 5689 5689 5690 5691 5693 5694 5696 5698
5749 5746 5744 5741 5739 5736 5733 5731 5728 5725 5722 5719 5716 5713 5710 5707 5704 5701 5699 5696 5693 5691 5690 5687 5686 5684 5683 5682 5681 5681 5680 5680 5680 5680 5680 5680 5680 5681 5682 5683 5685 5686 5688
5744 5742 5739 5736 5734 5731 5728 5725 5722 5719 5716 5713 5711 5707 5704 5701 5699 5696 5693 5690 5688 5685 5683 5682 5680 5678 5677 5676 5675 5674 5673 5673 5673 5672 5672 5672 5672 5672 5673 5674 5675 5677 5678
5740 5737 5734 5732 5729 5726 5723 5720 5717 5714 5711 5708 5705 5702 5699 5696 5693 5690 5687 5685 5682 5680 5678 5676 5674 5673 5671 5670 5668 5667 5666 5666 5665 5665 5664 5664 5664 5664 5665 5665 5667 5668 5669
5735 5732 5730 5727 5724 5721 5718 5715 5712 5709 5706 5703 5700 5697 5694 5691 5688 5685 5682 5679 5677 5675 5672 5670 5669 5667 5666 5664 5663 5662 5660 5659 5659 5658 5657 5657 5657 5657 5657 5658 5658 5659 5659
5730 5727 5725 5722 5719 5716 5713 5710 5707 5704 5702 5698 5695 5692 5689 5686 5683 5680 5677 5675 5673 5670 5668 5666 5664 5662 5661 5659 5658 5656 5655 5654 5653 5652 5651 5651 5650 5650 5651 5651 5650 5651 5651